This demonstration page uses our WeatherBlox Daily Observations layout. Learn more.

Left ArrowRight Arrow

Hourly Observations for October 23, 2021

Temp ( °F °C ) Dew Point ( °F °C ) Humidity (%) Winds ( mph kmh ) Pressure ( in mb ) Visibility ( mi km ) Precip ( " mm )
12:53 am 00:53 Clear 71 21.7 60 15.6 68 68 SSE 15 24 29.79 1009 10 16 N/A
1:53 am 01:53 Clear 70 21.1 60 15.6 71 71 SSE 16 26 29.77 1008 10 16 N/A
2:53 am 02:53 Clear 69 20.6 60 15.6 73 73 SSE 15 24 29.76 1008 10 16 N/A
3:53 am 03:53 Clear 67 19.4 60 15.6 79 79 SE 12 19 29.75 1008 10 16 N/A
4:53 am 04:53 Clear 66 18.9 60 15.6 81 81 SE 13 20 29.74 1007 10 16 N/A
5:53 am 05:53 Clear 65 18.3 60 15.6 84 84 SE 14 22 29.74 1007 10 16 N/A
6:53 am 06:53 Partly Cloudy 64 17.8 59 15 84 84 SE 10 17 29.75 1008 10 16 N/A
7:53 am 07:53 Partly Cloudy 63 17.2 59 15 87 87 SE 9 15 29.78 1008 10 16 N/A
8:37 am 08:37 Partly Cloudy with Nearby Thunderstorms 64 17.8 60 15.6 87 87 SE 7 11 29.80 1009 10 16 N/A
8:53 am 08:53 Mostly Cloudy 65 18.3 60 15.6 84 84 SE 9 15 29.77 1008 10 16 N/A
9:53 am 09:53 Partly Cloudy 67 19.4 61 16.1 81 81 SE 5 7 29.79 1009 10 16 0.00 0.00
10:53 am 10:53 Sunny 73 22.8 60 15.6 64 64 SSE 9 15 29.77 1008 10 16 N/A
11:53 am 11:53 Sunny 79 26.1 58 14.4 49 49 SE 8 13 29.75 1007 10 16 N/A
12:53 pm 12:53 Sunny 85 29.4 54 12.2 35 35 S 12 19 29.71 1006 10 16 N/A
1:53 pm 13:53 Sunny 87 30.6 52 11.1 30 30 W 13 20 29.67 1005 10 16 N/A
2:53 pm 14:53 Sunny 89 31.7 52 11.1 28 28 SSW 9 15 29.64 1004 10 16 N/A
3:53 pm 15:53 Sunny 90 32.2 52 11.1 27 27 SSW 9 15 29.61 1003 10 16 N/A
4:53 pm 16:53 Mostly Sunny 91 32.8 45 7.2 20 20 SW 12 19 29.59 1002 10 16 N/A
5:53 pm 17:53 Partly Cloudy 90 32.2 43 6.1 19 19 SW 10 17 29.58 1002 10 16 N/A
6:53 pm 18:53 Mostly Cloudy 84 28.9 59 15 43 43 SE 17 28 29.60 1002 10 16 N/A
7:53 pm 19:53 Clear 80 26.7 59 15 49 49 S 12 19 29.64 1004 10 16 N/A
8:53 pm 20:53 Clear 76 24.4 58 14.4 54 54 SSE 7 11 29.65 1004 10 16 N/A
9:53 pm 21:53 Clear 71 21.7 57 13.9 61 61 SSE 6 9 29.66 1005 10 16 N/A
10:53 pm 22:53 Clear 69 20.6 56 13.3 63 63 SSE 5 7 29.67 1005 10 16 N/A
11:53 pm 23:53 Clear 66 18.9 56 13.3 70 70 E 5 7 29.66 1004 10 16 N/A

Powered by AerisWeather